Regional Weather Roundup
Issued by NWS

Home | Current Version | Previous Version | Graphics & Text | Print | Product List | Glossary On
Versions: 1 2 3 4 5 6 7 8 9 10 11 12 13 14 15 16 17 18 19 20 21 22 23 24 25 26 27 28 29 30 31 32 33 34 35 36 37 38 39 40 41 42 43 44 45 46 47 48 49 50
000
ASUS45 KBOU 261007
RWRCO

WEATHER ROUNDUP FOR COLORADO
NATIONAL WEATHER SERVICE DENVER/BOULDER CO
300 AM MST WED NOV 26 2014

NOTE: "FAIR" INDICATES FEW OR NO CLOUDS BELOW 12000 FEET WITH NO
SIGNIFICANT WEATHER AND/OR OBSTRUCTIONS TO VISIBILITY.

COZ001>005-013-030-031-261100-
...NORTHWEST COLORADO...

CITY           SKY/WX    TMP DP  RH WIND       PRES   REMARKS
CRAIG          CLOUDY    31  25  78 E5        30.24R WCI  26
HAYDEN         CLOUDY    28  23  80 S7        30.22S WCI  21
MEEKER         CLOUDY    34  25  69 CALM      30.27R
MOUNT WERNER   NOT AVBL
STEAMBOAT SPGS CLOUDY    31  31  98 E5        30.23R WCI  27
WALDEN         CLOUDY    32  25  74 W22G31    30.11S WCI  19
$$

COZ006>008-011-261100-
...WEST CENTRAL VALLEYS...

CITY           SKY/WX    TMP DP  RH WIND       PRES   REMARKS
GRAND JUNCTION PTCLDY    24  19  81 E3        30.33R
MONTROSE       CLOUDY    33  21  61 CALM      30.34R
EAGLE          CLOUDY    36  25  64 W3        30.29R
RIFLE          CLOUDY    27  22  81 SW3       30.33S
DELTA          CLOUDY    35  25  66 CALM      30.34S
NUCLA          MOCLDY    36  23  60 SE8       30.38S
$$

COZ017>023-064>068-261100-
...SOUTHWEST COLORADO...

CITY           SKY/WX    TMP DP  RH WIND       PRES   REMARKS
DURANGO        PTCLDY    24  12  60 E9        30.30S WCI  14
CORTEZ         CLEAR     21  14  74 E9        30.36S WCI  11
PAGOSA SPRINGS PTCLDY    18  10  70 CALM      30.32S
TELLURIDE      NOT AVBL
WOLF CREEK PAS PTCLDY    19  14  79 MISG      30.32S
$$

COZ009-010-012-014-032>034-037-058>063-261100-
...CENTRAL COLORADO...

CITY           SKY/WX    TMP DP  RH WIND       PRES   REMARKS
ASPEN          MIX PCPN  26  21  81 CALM      30.30R
BUENA VISTA    PTCLDY    34  20  57 W13G29    30.16R WCI  25
COPPER MTN     CLOUDY    25  19  80 MISG      30.24R
BERTHOUD PASS  NOT AVBL
COTTONWOOD PAS LGT SNOW  32  21  64 W24G40    30.12R WCI  19
GUNNISON       CLOUDY    28  21  74 NE6       30.34S WCI  22
KREMMLING      MIX PCPN  32  28  86 W16G29    30.21R WCI  21
LEADVILLE      LGT SNOW  24  22  91 N9        30.23F FOG     WCI  14
MONARCH PASS   CLOUDY    19  18  93 MISG      30.27S
SALIDA         PTCLDY    40  23  50 W28G41    30.24R
SUNLIGHT       CLOUDY   N/A N/A N/A CALM      30.30S
WILKERSON PASS PTCLDY    21  19  93 NW10G25   30.17R WCI  10
$$

COZ069>075-261100-
...SAN LUIS VALLEY/SANGRE DE CRISTO MOUNTAINS...

CITY           SKY/WX    TMP DP  RH WIND       PRES   REMARKS
ALAMOSA        PTCLDY     9   4  80 S6        30.26S WCI  -1
LA VETA PASS   PTCLDY    21  12  68 S15G24    30.17S WCI   8
SAGUACHE       NOT AVBL
$$

COZ035-036-038>040-261100-
...NORTHERN COLORADO FRONT RANGE...

CITY           SKY/WX    TMP DP  RH WIND       PRES   REMARKS
DENVER INTL AP FLURRIES  27  22  81 NE8       30.17S WCI  19
DMNS CITY PARK   N/A     27  25  92 NE3G10    30.18R
AURORA         FLURRIES  27  27 100 E6        30.17S WCI  20
FRONT RANGE AP CLOUDY    30  28  93 CALM      30.18S
ERIE MUNI ARPT CLOUDY    30  28  91 SE8       30.18S FOG     WCI  22
BOULDER MUN AP FLURRIES  30  27  86 NE5       30.17S WCI  25
CENTENNIAL     FLURRIES  27  24  89 E5        30.16R WCI  22
BROOMFIELD     LGT SNOW  30  30 100 SE6       30.16F WCI  24
FORT COLLINS   CLOUDY    28  21  74 SE9       30.17S WCI  20
LONGMONT       CLOUDY    32  26  78 CALM      30.20R
$$

COZ041-046-047-076>085-087-088-261100-
...PIKES PEAK/PALMER DIVIDE AND SOUTHERN FOOTHILLS...

CITY           SKY/WX    TMP DP  RH WIND       PRES   REMARKS
COLO. SPRINGS  PTCLDY    26  22  84 SE6       30.14R WCI  19
A. F. ACADEMY  PTCLDY    26  23  87 N14       30.10R WCI  14
ELLICOTT       NOT AVBL
FALCON         NOT AVBL
FORT CARSON    CLOUDY    26  24  91 S7        30.15R WCI  18
LIMON          CLOUDY    27  24  89 N14       30.15R WCI  16
MONUMENT HILL  CLOUDY    23  23 100 N6        30.12S WCI  16
TRINIDAD       PTCLDY    29  23  78 CALM      30.19R
$$

COZ042>045-048>051-090-091-261100-
...NORTHEAST COLORADO...

CITY           SKY/WX    TMP DP  RH WIND       PRES   REMARKS
GREELEY ARPT   CLOUDY    28  21  74 CALM      30.19R
AKRON          LGT SNOW  28  26  92 W16       30.13R FOG     WCI  16
BURLINGTON     FLURRIES  32  28  85 NW20G25   30.13S WCI  20
WRAY           CLOUDY    33  28  82 W12       30.14R WCI  25
STERLING       LGT SNOW  34  30  86 NW9       30.16R WCI  26
HOLYOKE        CLOUDY    34  27  75 W13G22    30.11R WCI  25
FORT MORGAN    CLOUDY    28  26  94 W8        30.17S WCI  20
$$

COZ086-089-092>099-261100-
...SOUTHEAST COLORADO...

CITY           SKY/WX    TMP DP  RH WIND       PRES   REMARKS
PUEBLO         CLEAR     26  22  84 CALM      30.18R
LA JUNTA       CLEAR     28  24  85 NW6       30.19R WCI  22
LAMAR          CLEAR     31  27  85 N8        30.15R WCI  23
SPRINGFIELD      N/A     26  25  96 NW9       30.15R WCI  17
$$



USA.gov is the U.S. government's official web portal to all federal, state and local government web resources and services.